Starlink 35521

operational
NORAD ID: 65916 Int'l Des: 2025-225 Owner: SPXS Country: US Constellation: starlink
LEOCIRCULAR

关于 Starlink 35521

正在加载描述...

实时位置

正在加载3D地球...

即将过境

高度历史

Altitude vs Time

uPlot chart will show altitude changes over time

两行轨道根数

1 65916U 25225G 26062.52664941 .00027855 00000-0 94894-3 0 9990
2 65916 53.1583 194.3663 0001124 71.0258 289.0864 15.30204940 23467
Epoch: Mar 3, 2026 • Age: 37 hours

当前状态

高度 480.6 km
速度 7.63 km/s
星下点 52.05°N, 54.2°W
发射日期 Oct 8, 2025
运行时间 0.4 years
类型 internet

技术详情

分类 Payload
质量 575.00 kg
干质量 530.00 kg
总质量 575.00 kg
长度 0.30 m
直径 4.10 m
跨度 29.00 m
形状 Box + pan
制造商 SPXS
平台类型 Starlink V2MO
阶段状态 In Orbit
所有者/国家 SPXS/US

大型星座

Loading constellations...